Manhattan, KS

4:19 AM CDT on April 27, 2018 (GMT -0500)
Manhattan Regional

Weather History for KMHK - March, 2013

Change the Weather History Date:

Saturday, March 23, 2013

  Actual Average Record
Temperature  
Mean Temperature 34 °F 46 °F  
Max Temperature 37 °F 60 °F 81 °F (2016)
Min Temperature 30 °F 33 °F 15 °F (2014)
Degree Days  
Heating Degree Days 31 19  
Month to date heating degree days 610 538  
Since 1 July heating degree days 4367 4698  
Cooling Degree Days 0 0  
Month to date cooling degree days 0 0  
Year to date cooling degree days 0 0  
Moisture  
Dew Point 29 °F    
Average Humidity 83    
Maximum Humidity 96    
Minimum Humidity 70    
Precipitation  
Precipitation 0.10 in 0.07 in 0.70 in (2007)
Month to date precipitation 0.80 1.68  
Year to date precipitation 2.51 3.40  
Sea Level Pressure  
Sea Level Pressure 29.97 in    
Wind  
Wind Speed 13 mph (NE)    
Max Wind Speed 28 mph    
Max Gust Speed 36 mph    
Visibility 4 miles    
Events Fog , Snow    
T = Trace of Precipitation, MM = Missing Value Source: NWS Daily Summary

Daily Weather History Graph

Daily Weather History Graph

Search for Another Location

Airport or City:

Astronomy

Mar. 23, 2013 Rise Set
Actual Time 7:24 AM CDT 7:41 PM CDT
Civil Twilight 6:58 AM CDT 8:08 PM CDT
Nautical Twilight 6:26 AM CDT 8:40 PM CDT
Astronomical Twilight 5:55 AM CDT 9:12 PM CDT
Moon 4:11 PM CDT (3/23) 5:00 AM CDT (3/23)
Length of Visible Light 13h 10m
Length of Day
12h 16m
Waxing Gibbous, 85% of the Moon is Illuminated
Mar 23
Waxing Gibbous
Mar 27
Full
Apr 2
Last Quarter
Apr 10
New
Apr 18
First Quarter

Hourly Weather History & Observations

Time (CDT) Temp. Windchill Dew Point Humidity Pressure Visibility Wind Dir Wind Speed Gust Speed Precip Events Conditions
12:01 AM 33.8 °F 28.6 °F 28.4 °F 81% 29.99 in 8.0 mi East 5.8 mph - N/A   Overcast
12:52 AM 34.0 °F 28.8 °F 28.9 °F 82% 30.03 in 8.0 mi East 5.8 mph - N/A   Overcast
1:52 AM 33.1 °F 27.7 °F 28.9 °F 85% 30.03 in 8.0 mi ENE 5.8 mph - N/A   Overcast
2:13 AM 33.8 °F 30.8 °F 28.4 °F 81% 30.01 in 8.0 mi NE 3.5 mph - N/A   Overcast
2:42 AM 33.8 °F 27.7 °F 28.4 °F 81% 29.99 in 7.0 mi NE 6.9 mph - N/A   Overcast
2:52 AM 33.1 °F 25.5 °F 28.9 °F 85% 30.01 in 7.0 mi NE 9.2 mph - N/A   Overcast
3:52 AM 33.1 °F 26.9 °F 28.9 °F 85% 30.01 in 6.0 mi East 6.9 mph - N/A   Overcast
4:52 AM 33.1 °F 27.7 °F 28.9 °F 85% 30.01 in 5.0 mi NE 5.8 mph - N/A   Overcast
5:45 AM 33.8 °F 27.0 °F 28.4 °F 81% 29.99 in 6.0 mi NE 8.1 mph - N/A   Overcast
5:52 AM 33.1 °F 26.1 °F 28.9 °F 85% 30.01 in 6.0 mi NE 8.1 mph - N/A   Overcast
6:52 AM 33.1 °F 25.5 °F 28.9 °F 85% 30.01 in 6.0 mi NE 9.2 mph - N/A   Overcast
7:52 AM 33.1 °F 23.9 °F 27.0 °F 78% 30.01 in 6.0 mi ENE 12.7 mph - N/A   Haze
8:52 AM 33.1 °F 23.4 °F 27.0 °F 78% 30.01 in 6.0 mi ENE 13.8 mph - N/A   Haze
9:52 AM 34.0 °F 25.5 °F 28.0 °F 79% 30.06 in 6.0 mi NE 11.5 mph - N/A   Haze
10:52 AM 35.1 °F 25.5 °F 28.0 °F 76% 30.04 in 4.0 mi NE 15.0 mph - 0.00 in Snow Light Snow
11:15 AM 35.6 °F 25.9 °F 28.4 °F 75% 30.00 in 7.0 mi NE 16.1 mph - 0.00 in   Overcast
11:52 AM 35.1 °F 26.9 °F 26.1 °F 70% 30.04 in 10.0 mi ENE 11.5 mph - 0.00 in   Overcast
12:52 PM 35.1 °F 25.5 °F 26.1 °F 70% 30.01 in 9.0 mi NE 15.0 mph - 0.00 in   Overcast
1:35 PM 37.4 °F 27.2 °F 26.6 °F 65% 29.96 in 9.0 mi NE 19.6 mph 25.3 mph 0.00 in   Overcast
1:50 PM 35.6 °F 25.2 °F 28.4 °F 75% 29.95 in 2.5 mi ENE 18.4 mph - 0.00 in Snow Light Snow
1:52 PM 36.0 °F 25.3 °F 28.9 °F 76% 29.98 in 3.0 mi ENE 19.6 mph - 0.00 in Snow Light Snow
2:52 PM 36.0 °F 27.1 °F 28.0 °F 73% 29.96 in 5.0 mi ENE 13.8 mph - 0.00 in Snow Light Snow
3:34 PM 35.6 °F 25.2 °F 28.4 °F 75% 29.92 in 2.5 mi NE 18.4 mph 24.2 mph 0.00 in Snow Light Snow
3:47 PM 35.6 °F 26.6 °F 30.2 °F 81% 29.92 in 1.5 mi NE 13.8 mph - 0.00 in Snow Light Snow
3:52 PM 35.1 °F 25.5 °F 30.0 °F 82% 29.94 in 1.5 mi ENE 15.0 mph - 0.00 in Snow Light Snow
4:21 PM 33.8 °F 24.8 °F 30.2 °F 87% 29.92 in 2.0 mi NE 12.7 mph - 0.00 in Snow Light Snow
4:30 PM 33.8 °F 25.3 °F 32.0 °F 93% 29.92 in 1.5 mi NE 11.5 mph - 0.00 in Snow Light Snow
4:36 PM 33.8 °F 25.8 °F 32.0 °F 93% 29.92 in 1.5 mi NE 10.4 mph - 0.00 in Snow Light Snow
4:52 PM 34.0 °F 26.0 °F 32.0 °F 92% 29.95 in 2.0 mi NE 10.4 mph - 0.01 in Snow Light Snow
4:57 PM 33.8 °F 25.8 °F 32.0 °F 93% 29.93 in 1.5 mi NE 10.4 mph - 0.00 in Snow Light Snow
5:21 PM 33.8 °F 25.3 °F 32.0 °F 93% 29.93 in 1.0 mi NE 11.5 mph - 0.00 in Snow Light Snow
5:28 PM 33.8 °F 23.5 °F 32.0 °F 93% 29.93 in 1.0 mi NE 16.1 mph - 0.01 in Snow Light Snow
5:35 PM 33.8 °F 26.4 °F 32.0 °F 93% 29.93 in 0.8 mi NNE 9.2 mph - 0.01 in Snow Light Snow
5:52 PM 33.1 °F 23.9 °F 30.9 °F 92% 29.96 in 0.5 mi NNE 12.7 mph - 0.02 in Fog , Snow Snow
6:44 PM 33.8 °F 23.9 °F 30.2 °F 87% 29.94 in 0.8 mi NNE 15.0 mph 25.3 mph 0.01 in Snow Light Snow
6:52 PM 33.1 °F 23.0 °F 30.9 °F 92% 29.97 in 0.8 mi NNE 15.0 mph 23.0 mph 0.01 in Snow Light Snow
6:57 PM 33.8 °F 23.2 °F 30.2 °F 87% 29.94 in 1.2 mi NNE 17.3 mph 26.5 mph N/A Snow Light Snow
7:52 PM 33.1 °F 23.0 °F 30.0 °F 89% 29.99 in 1.5 mi NNE 15.0 mph - 0.01 in Snow Light Snow
8:35 PM 32.0 °F 20.5 °F 28.4 °F 87% 29.97 in 2.0 mi NNE 18.4 mph 26.5 mph 0.00 in Snow Light Snow
8:41 PM 32.0 °F 20.8 °F 28.4 °F 87% 29.97 in 1.8 mi NNE 17.3 mph 26.5 mph 0.00 in Snow Light Snow
8:52 PM 32.0 °F 21.2 °F 30.0 °F 92% 29.99 in 1.2 mi NNE 16.1 mph - 0.00 in Snow Light Snow
9:15 PM 32.0 °F 20.5 °F 28.4 °F 87% 29.96 in 1.2 mi NNE 18.4 mph 26.5 mph 0.01 in Snow Light Snow
9:50 PM 30.2 °F 16.2 °F 28.4 °F 93% 29.90 in 2.5 mi NE 25.3 mph 32.2 mph 0.01 in Snow Light Snow
9:52 PM 30.9 °F 16.9 °F 28.0 °F 89% 29.92 in 2.5 mi NE 26.5 mph 33.4 mph 0.01 in Snow Light Snow
10:00 PM 30.2 °F 17.8 °F 28.4 °F 93% 29.94 in 3.0 mi NNE 19.6 mph 34.5 mph N/A Snow Light Snow
10:20 PM 30.2 °F 18.5 °F 26.6 °F 86% 29.98 in 7.0 mi NNE 17.3 mph 23.0 mph 0.00 in Snow Light Snow
10:52 PM 30.9 °F 21.2 °F 27.0 °F 85% 30.02 in 6.0 mi NNE 12.7 mph 26.5 mph 0.00 in Snow Light Snow
11:00 PM 30.2 °F 18.9 °F 26.6 °F 86% 29.99 in 6.0 mi NNE 16.1 mph 21.9 mph 0.00 in Snow Light Snow
11:21 PM 30.2 °F 18.9 °F 26.6 °F 86% 29.96 in 2.5 mi NNE 16.1 mph 25.3 mph 0.01 in Snow Light Snow
11:35 PM 30.2 °F 17.1 °F 28.4 °F 93% 29.92 in 1.2 mi NNE 21.9 mph 31.1 mph 0.02 in Snow Light Snow
11:52 PM 30.9 °F 20.2 °F 27.0 °F 85% 30.01 in 1.5 mi NNE 15.0 mph 23.0 mph 0.02 in Snow Light Snow